Time,TemperatureF,DewpointF,PressureIn,WindDirection,WindDirectionDegrees,WindSpeedMPH,WindSpeedGustMPH,Humidity,HourlyPrecipIn,Conditions,Clouds,dailyrainin,SoftwareType,DateUTC
2013-09-01 00:03:00,66.0,66.0,-100.00,WSW,255,0.0,0.0,98,-99.99,,,-99.99,,2013-09-01 05:03:00,
2013-09-01 00:43:00,68.0,67.0,-100.00,WSW,255,4.0,5.0,98,-99.99,,,-99.99,,2013-09-01 05:43:00,
2013-09-01 00:52:00,68.0,67.0,-100.00,WSW,255,4.0,5.0,98,-99.99,,,-99.99,,2013-09-01 05:52:00,
2013-09-01 01:02:00,68.0,67.0,-100.00,WSW,255,4.0,5.0,98,-99.99,,,-99.99,,2013-09-01 06:02:00,
2013-09-01 01:42:00,68.0,68.0,-100.00,WSW,255,2.0,6.0,98,-99.99,,,-99.99,,2013-09-01 06:42:00,
2013-09-01 01:52:00,68.0,68.0,-100.00,WSW,255,2.0,6.0,98,-99.99,,,-99.99,,2013-09-01 06:52:00,
2013-09-01 02:02:00,68.0,68.0,-100.00,WSW,255,2.0,6.0,98,-99.99,,,-99.99,,2013-09-01 07:02:00,
2013-09-01 02:42:00,68.0,68.0,-100.00,WSW,255,1.0,2.0,99,-99.99,,,-99.99,,2013-09-01 07:42:00,
2013-09-01 02:52:00,68.0,68.0,-100.00,WSW,255,1.0,2.0,99,-99.99,,,-99.99,,2013-09-01 07:52:00,
2013-09-01 03:02:00,68.0,68.0,-100.00,WSW,255,1.0,2.0,99,-99.99,,,-99.99,,2013-09-01 08:02:00,
2013-09-01 03:43:00,69.0,69.0,-100.00,WSW,255,1.0,4.0,99,-99.99,,,-99.99,,2013-09-01 08:43:00,
2013-09-01 03:52:00,69.0,69.0,-100.00,WSW,255,1.0,4.0,99,-99.99,,,-99.99,,2013-09-01 08:52:00,
2013-09-01 04:02:00,69.0,69.0,-100.00,WSW,255,1.0,4.0,99,-99.99,,,-99.99,,2013-09-01 09:02:00,
2013-09-01 04:43:00,69.0,68.0,-100.00,WSW,255,1.0,3.0,98,-99.99,,,-99.99,,2013-09-01 09:43:00,
2013-09-01 04:53:00,69.0,68.0,-100.00,WSW,255,1.0,3.0,98,-99.99,,,-99.99,,2013-09-01 09:53:00,
2013-09-01 05:03:00,69.0,68.0,-100.00,WSW,255,1.0,3.0,98,-99.99,,,-99.99,,2013-09-01 10:03:00,
2013-09-01 05:42:00,69.0,69.0,-100.00,WSW,255,1.0,6.0,98,-99.99,,,-99.99,,2013-09-01 10:42:00,
2013-09-01 05:53:00,69.0,69.0,-100.00,WSW,255,1.0,6.0,98,-99.99,,,-99.99,,2013-09-01 10:53:00,
2013-09-01 06:02:00,69.0,69.0,-100.00,WSW,255,1.0,6.0,98,-99.99,,,-99.99,,2013-09-01 11:02:00,
2013-09-01 06:42:00,68.0,68.0,-100.00,WSW,255,1.0,4.0,99,-99.99,,,-99.99,,2013-09-01 11:42:00,
2013-09-01 06:52:00,68.0,68.0,-100.00,WSW,255,1.0,4.0,99,-99.99,,,-99.99,,2013-09-01 11:52:00,
2013-09-01 07:01:00,68.0,68.0,-100.00,WSW,255,1.0,4.0,99,-99.99,,,-99.99,,2013-09-01 12:01:00,
2013-09-01 07:42:00,69.0,69.0,-100.00,WSW,255,2.0,4.0,99,-99.99,,,-99.99,,2013-09-01 12:42:00,
2013-09-01 07:52:00,69.0,69.0,-100.00,WSW,255,2.0,4.0,99,-99.99,,,-99.99,,2013-09-01 12:52:00,
2013-09-01 08:02:00,69.0,69.0,-100.00,WSW,255,2.0,4.0,99,-99.99,,,-99.99,,2013-09-01 13:02:00,
2013-09-01 08:42:00,71.0,70.0,-100.00,WSW,255,2.0,7.0,99,-99.99,,,-99.99,,2013-09-01 13:42:00,
2013-09-01 08:52:00,71.0,70.0,-100.00,WSW,255,2.0,7.0,99,-99.99,,,-99.99,,2013-09-01 13:52:00,
2013-09-01 09:02:00,71.0,70.0,-100.00,WSW,255,2.0,7.0,99,-99.99,,,-99.99,,2013-09-01 14:02:00,
2013-09-01 09:42:00,77.0,72.0,-100.00,WSW,255,4.0,9.0,84,-99.99,,,-99.99,,2013-09-01 14:42:00,
2013-09-01 09:52:00,77.0,72.0,-100.00,WSW,255,4.0,9.0,84,-99.99,,,-99.99,,2013-09-01 14:52:00,
2013-09-01 10:02:00,77.0,72.0,-100.00,WSW,255,4.0,9.0,84,-99.99,,,-99.99,,2013-09-01 15:02:00,
2013-09-01 10:45:00,77.0,70.0,-100.00,WSW,255,7.0,14.0,79,-99.99,,,-99.99,,2013-09-01 15:45:00,
2013-09-01 10:55:00,77.0,70.0,-100.00,WSW,255,7.0,14.0,79,-99.99,,,-99.99,,2013-09-01 15:55:00,
2013-09-01 11:05:00,77.0,70.0,-100.00,WSW,255,7.0,14.0,79,-99.99,,,-99.99,,2013-09-01 16:05:00,
2013-09-01 11:43:00,80.0,71.0,-100.00,WSW,255,4.0,11.0,74,-99.99,,,-99.99,,2013-09-01 16:43:00,
2013-09-01 11:53:00,80.0,71.0,-100.00,WSW,255,4.0,11.0,74,-99.99,,,-99.99,,2013-09-01 16:53:00,
2013-09-01 12:03:00,80.0,71.0,-100.00,WSW,255,4.0,11.0,74,-99.99,,,-99.99,,2013-09-01 17:03:00,
2013-09-01 12:42:00,81.0,63.0,-100.00,WSW,255,9.0,17.0,54,-99.99,,,-99.99,,2013-09-01 17:42:00,
2013-09-01 12:52:00,81.0,63.0,-100.00,WSW,255,9.0,17.0,54,-99.99,,,-99.99,,2013-09-01 17:52:00,
2013-09-01 13:02:00,81.0,63.0,-100.00,WSW,255,9.0,17.0,54,-99.99,,,-99.99,,2013-09-01 18:02:00,
2013-09-01 13:42:00,81.0,61.0,-100.00,WSW,255,14.0,21.0,51,-99.99,,,-99.99,,2013-09-01 18:42:00,
2013-09-01 13:52:00,81.0,61.0,-100.00,WSW,255,14.0,21.0,51,-99.99,,,-99.99,,2013-09-01 18:52:00,
2013-09-01 14:02:00,81.0,61.0,-100.00,WSW,255,14.0,21.0,51,-99.99,,,-99.99,,2013-09-01 19:02:00,
2013-09-01 14:42:00,81.0,60.0,-100.00,WSW,255,11.0,19.0,49,-99.99,,,-99.99,,2013-09-01 19:42:00,
2013-09-01 14:52:00,81.0,60.0,-100.00,WSW,255,11.0,19.0,49,-99.99,,,-99.99,,2013-09-01 19:52:00,
2013-09-01 15:02:00,81.0,60.0,-100.00,WSW,255,11.0,19.0,49,-99.99,,,-99.99,,2013-09-01 20:02:00,
2013-09-01 15:42:00,80.0,59.0,-100.00,WSW,255,11.0,21.0,49,-99.99,,,-99.99,,2013-09-01 20:42:00,
2013-09-01 15:52:00,80.0,59.0,-100.00,WSW,255,11.0,21.0,49,-99.99,,,-99.99,,2013-09-01 20:52:00,
2013-09-01 16:02:00,80.0,59.0,-100.00,WSW,255,11.0,21.0,49,-99.99,,,-99.99,,2013-09-01 21:02:00,
2013-09-01 16:44:00,78.0,58.0,-100.00,WSW,255,11.0,19.0,51,-99.99,,,-99.99,,2013-09-01 21:44:00,
2013-09-01 16:55:00,78.0,58.0,-100.00,WSW,255,11.0,19.0,51,-99.99,,,-99.99,,2013-09-01 21:55:00,
2013-09-01 17:04:00,78.0,58.0,-100.00,WSW,255,11.0,19.0,51,-99.99,,,-99.99,,2013-09-01 22:04:00,
2013-09-01 17:43:00,77.0,57.0,-100.00,WSW,255,9.0,18.0,51,-99.99,,,-99.99,,2013-09-01 22:43:00,
2013-09-01 17:53:00,77.0,57.0,-100.00,WSW,255,9.0,18.0,51,-99.99,,,-99.99,,2013-09-01 22:53:00,
2013-09-01 18:03:00,77.0,57.0,-100.00,WSW,255,9.0,18.0,51,-99.99,,,-99.99,,2013-09-01 23:03:00,
2013-09-01 18:42:00,76.0,59.0,-100.00,WSW,255,6.0,12.0,55,-99.99,,,-99.99,,2013-09-01 23:42:00,
2013-09-01 18:53:00,76.0,59.0,-100.00,WSW,255,6.0,12.0,55,-99.99,,,-99.99,,2013-09-01 23:53:00,
2013-09-01 19:02:00,76.0,59.0,-100.00,WSW,255,6.0,12.0,55,-99.99,,,-99.99,,2013-09-02 00:02:00,
2013-09-01 19:42:00,75.0,60.0,-100.00,WSW,255,4.0,9.0,60,-99.99,,,-99.99,,2013-09-02 00:42:00,
2013-09-01 19:52:00,75.0,60.0,-100.00,WSW,255,4.0,9.0,60,-99.99,,,-99.99,,2013-09-02 00:52:00,
2013-09-01 20:02:00,75.0,60.0,-100.00,WSW,255,4.0,9.0,60,-99.99,,,-99.99,,2013-09-02 01:02:00,
2013-09-01 20:42:00,72.0,61.0,-100.00,WSW,255,5.0,7.0,69,-99.99,,,-99.99,,2013-09-02 01:42:00,
2013-09-01 20:52:00,72.0,61.0,-100.00,WSW,255,5.0,7.0,69,-99.99,,,-99.99,,2013-09-02 01:52:00,
2013-09-01 21:02:00,72.0,61.0,-100.00,WSW,255,5.0,7.0,69,-99.99,,,-99.99,,2013-09-02 02:02:00,
2013-09-01 21:42:00,70.0,61.0,-100.00,WSW,255,4.0,6.0,73,-99.99,,,-99.99,,2013-09-02 02:42:00,
2013-09-01 21:52:00,70.0,61.0,-100.00,WSW,255,4.0,6.0,73,-99.99,,,-99.99,,2013-09-02 02:52:00,
2013-09-01 22:02:00,70.0,61.0,-100.00,WSW,255,4.0,6.0,73,-99.99,,,-99.99,,2013-09-02 03:02:00,
2013-09-01 22:44:00,69.0,61.0,-100.00,WSW,255,5.0,13.0,76,-99.99,,,-99.99,,2013-09-02 03:44:00,
2013-09-01 22:56:00,69.0,61.0,-100.00,WSW,255,5.0,13.0,76,-99.99,,,-99.99,,2013-09-02 03:56:00,
2013-09-01 23:04:00,69.0,61.0,-100.00,WSW,255,5.0,13.0,76,-99.99,,,-99.99,,2013-09-02 04:04:00,
2013-09-01 23:44:00,68.0,62.0,-100.00,WSW,255,7.0,14.0,81,-99.99,,,-99.99,,2013-09-02 04:44:00,
2013-09-01 23:54:00,68.0,62.0,-100.00,WSW,255,7.0,14.0,81,-99.99,,,-99.99,,2013-09-02 04:54:00,